• In Deutschland
  • Länderverzeichnis
  • Für 7 Tage
  • Wassertemperatur
  • Satellitenkarten
  • Wetterkarte
  • Widgets
  • user-avatar
    Anmelden

    Stündliche Wetter Hockenheim

    Heute, 21 Februar, Mittwoch

    Zeit Temperatur Niederschläge Wind Luftdruck Luftfeuchtigkeit
    00:00 -2°C° 0 mm 2 m/S 755 mmHg 75%
    01:00 -2°C° 0 mm 2 m/S 755 mmHg 77%
    02:00 -2°C° 0 mm 2 m/S 755 mmHg 78%
    03:00 -2°C° 0 mm 2 m/S 756 mmHg 79%
    04:00 -2°C° 0 mm 2 m/S 756 mmHg 80%
    05:00 -2°C° 0 mm 2 m/S 756 mmHg 80%
    06:00 -2°C° 0 mm 2 m/S 756 mmHg 80%
    07:00 -2°C° 0 mm 2 m/S 756 mmHg 80%
    08:00 -2°C° 0 mm 3 m/S 756 mmHg 74%
    09:00 -1°C° 0 mm 3 m/S 756 mmHg 69%
    10:00 0°C° 0 mm 3 m/S 756 mmHg 63%
    11:00 0°C° 0 mm 4 m/S 756 mmHg 58%
    12:00 +1°C° 0 mm 4 m/S 756 mmHg 54%
    13:00 +3°C° 0 mm 4 m/S 756 mmHg 49%
    14:00 +3°C° 0 mm 4 m/S 756 mmHg 49%
    15:00 +3°C° 0 mm 4 m/S 755 mmHg 49%
    16:00 +4°C° 0 mm 4 m/S 755 mmHg 49%
    17:00 +1°C° 0 mm 4 m/S 755 mmHg 54%
    18:00 0°C° 0 mm 4 m/S 755 mmHg 60%
    19:00 0°C° 0 mm 3 m/S 756 mmHg 65%
    20:00 0°C° 0 mm 3 m/S 756 mmHg 67%
    21:00 -2°C° 0 mm 4 m/S 756 mmHg 69%
    22:00 -2°C° 0 mm 4 m/S 756 mmHg 71%
    23:00 -2°C° 0 mm 4 m/S 756 mmHg 72%

    Morgen, 22 Februar, Donnerstag

    Zeit Temperatur Niederschläge Wind Luftdruck Luftfeuchtigkeit
    00:00 -3°C° 0 mm 4 m/S 756 mmHg 73%
    01:00 -3°C° 0 mm 4 m/S 756 mmHg 74%
    02:00 -3°C° 0 mm 4 m/S 755 mmHg 74%
    03:00 -3°C° 0 mm 4 m/S 755 mmHg 74%
    04:00 -3°C° 0 mm 4 m/S 755 mmHg 74%
    05:00 -3°C° 0 mm 4 m/S 755 mmHg 73%
    06:00 -3°C° 0 mm 4 m/S 755 mmHg 72%
    07:00 -3°C° 0 mm 4 m/S 755 mmHg 72%
    08:00 -4°C° 0 mm 5 m/S 755 mmHg 66%
    09:00 -2°C° 0 mm 5 m/S 755 mmHg 61%
    10:00 -2°C° 0 mm 6 m/S 755 mmHg 55%
    11:00 -2°C° 0 mm 6 m/S 755 mmHg 50%
    12:00 -1°C° 0 mm 6 m/S 755 mmHg 46%
    13:00 +1°C° 0 mm 6 m/S 754 mmHg 41%
    14:00 +1°C° 0 mm 6 m/S 754 mmHg 41%
    15:00 +1°C° 0 mm 6 m/S 754 mmHg 41%
    16:00 +1°C° 0 mm 6 m/S 754 mmHg 41%
    17:00 +1°C° 0 mm 6 m/S 754 mmHg 44%
    18:00 0°C° 0 mm 5 m/S 754 mmHg 47%
    19:00 -1°C° 0 mm 5 m/S 754 mmHg 50%
    20:00 -2°C° 0 mm 5 m/S 754 mmHg 51%
    21:00 -2°C° 0 mm 5 m/S 754 mmHg 52%
    22:00 -2°C° 0 mm 5 m/S 754 mmHg 53%
    23:00 -4°C° 0 mm 5 m/S 754 mmHg 54%

    übermorgen, 23 Februar, Freitag

    Zeit Temperatur Niederschläge Wind Luftdruck Luftfeuchtigkeit
    00:00 -4°C° 0 mm 5 m/S 754 mmHg 54%
    01:00 -4°C° 0 mm 5 m/S 754 mmHg 54%
    02:00 -4°C° 0 mm 5 m/S 754 mmHg 54%
    03:00 -4°C° 0 mm 5 m/S 754 mmHg 54%
    04:00 -5°C° 0 mm 5 m/S 754 mmHg 54%
    05:00 -5°C° 0 mm 5 m/S 754 mmHg 54%
    06:00 -5°C° 0 mm 5 m/S 754 mmHg 54%
    07:00 -5°C° 0 mm 5 m/S 754 mmHg 54%
    08:00 -4°C° 0 mm 5 m/S 754 mmHg 51%
    09:00 -4°C° 0 mm 5 m/S 754 mmHg 48%
    10:00 -2°C° 0 mm 5 m/S 754 mmHg 46%
    11:00 -2°C° 0 mm 6 m/S 754 mmHg 44%
    12:00 -1°C° 0 mm 6 m/S 754 mmHg 42%
    13:00 +1°C° 0 mm 6 m/S 754 mmHg 39%
    14:00 +1°C° 0 mm 6 m/S 754 mmHg 40%
    15:00 +2°C° 0 mm 6 m/S 754 mmHg 41%
    16:00 +2°C° 0 mm 6 m/S 753 mmHg 41%
    17:00 +1°C° 0 mm 5 m/S 753 mmHg 44%
    18:00 0°C° 0 mm 5 m/S 754 mmHg 47%
    19:00 -1°C° 0 mm 5 m/S 754 mmHg 50%
    20:00 -1°C° 0 mm 5 m/S 754 mmHg 52%
    21:00 -1°C° 0 mm 5 m/S 754 mmHg 53%
    22:00 -2°C° 0 mm 5 m/S 754 mmHg 55%
    23:00 -2°C° 0 mm 5 m/S 754 mmHg 56%

    24 Februar, Samstag

    Zeit Temperatur Niederschläge Wind Luftdruck Luftfeuchtigkeit
    00:00 -2°C° 0 mm 5 m/S 754 mmHg 57%
    01:00 -2°C° 0 mm 5 m/S 754 mmHg 58%
    02:00 -2°C° 0 mm 5 m/S 754 mmHg 58%
    03:00 -4°C° 0 mm 5 m/S 754 mmHg 57%
    04:00 -4°C° 0 mm 5 m/S 754 mmHg 57%
    05:00 -4°C° 0 mm 5 m/S 754 mmHg 56%
    06:00 -4°C° 0 mm 5 m/S 754 mmHg 55%
    07:00 -4°C° 0 mm 5 m/S 755 mmHg 54%
    08:00 -2°C° 0 mm 5 m/S 755 mmHg 50%
    09:00 -1°C° 0 mm 5 m/S 755 mmHg 46%
    10:00 -2°C° 0 mm 6 m/S 755 mmHg 42%
    11:00 -1°C° 0 mm 6 m/S 755 mmHg 39%
    12:00 +1°C° 0 mm 6 m/S 755 mmHg 36%
    13:00 +2°C° 0 mm 6 m/S 755 mmHg 33%
    14:00 +2°C° 0 mm 6 m/S 755 mmHg 33%
    15:00 +3°C° 0 mm 6 m/S 755 mmHg 33%
    16:00 +3°C° 0 mm 6 m/S 755 mmHg 32%
    17:00 +2°C° 0 mm 6 m/S 755 mmHg 35%
    18:00 -1°C° 0 mm 6 m/S 755 mmHg 38%
    19:00 -1°C° 0 mm 5 m/S 756 mmHg 40%
    20:00 -1°C° 0 mm 5 m/S 756 mmHg 41%
    21:00 -2°C° 0 mm 5 m/S 757 mmHg 42%
    22:00 -3°C° 0 mm 6 m/S 757 mmHg 43%
    23:00 -4°C° 0 mm 6 m/S 757 mmHg 43%

    25 Februar, Sonntag

    Zeit Temperatur Niederschläge Wind Luftdruck Luftfeuchtigkeit
    00:00 -4°C° 0 mm 5 m/S 758 mmHg 44%
    01:00 -5°C° 0 mm 5 m/S 758 mmHg 44%
    02:00 -5°C° 0 mm 5 m/S 758 mmHg 44%
    03:00 -5°C° 0 mm 5 m/S 758 mmHg 44%
    04:00 -5°C° 0 mm 5 m/S 758 mmHg 44%
    05:00 -6°C° 0 mm 5 m/S 759 mmHg 44%
    06:00 -6°C° 0 mm 5 m/S 759 mmHg 43%
    07:00 -6°C° 0 mm 6 m/S 759 mmHg 43%
    08:00 -6°C° 0 mm 6 m/S 760 mmHg 41%
    09:00 -5°C° 0 mm 6 m/S 760 mmHg 38%
    10:00 -5°C° 0 mm 6 m/S 761 mmHg 36%
    11:00 -4°C° 0 mm 6 m/S 761 mmHg 34%
    12:00 -4°C° 0 mm 6 m/S 760 mmHg 32%
    13:00 -3°C° 0 mm 6 m/S 760 mmHg 30%
    14:00 -3°C° 0 mm 6 m/S 760 mmHg 30%
    15:00 -2°C° 0 mm 5 m/S 760 mmHg 30%
    16:00 -2°C° 0 mm 5 m/S 760 mmHg 30%
    17:00 -4°C° 0 mm 5 m/S 761 mmHg 32%
    18:00 -4°C° 0 mm 4 m/S 761 mmHg 34%
    19:00 -5°C° 0 mm 4 m/S 761 mmHg 35%
    20:00 -5°C° 0 mm 4 m/S 761 mmHg 35%
    21:00 -5°C° 0 mm 4 m/S 761 mmHg 35%
    22:00 -5°C° 0 mm 4 m/S 762 mmHg 35%
    23:00 -7°C° 0 mm 4 m/S 762 mmHg 36%

    26 Februar, Montag

    Zeit Temperatur Niederschläge Wind Luftdruck Luftfeuchtigkeit
    00:00 -7°C° 0 mm 4 m/S 761 mmHg 36%
    01:00 -7°C° 0 mm 4 m/S 761 mmHg 36%
    02:00 -6°C° 0 mm 3 m/S 761 mmHg 37%
    03:00 -7°C° 0 mm 3 m/S 761 mmHg 38%
    04:00 -7°C° 0 mm 3 m/S 761 mmHg 39%
    05:00 -7°C° 0 mm 3 m/S 761 mmHg 41%
    06:00 -7°C° 0 mm 3 m/S 761 mmHg 42%
    07:00 -8°C° 0 mm 3 m/S 761 mmHg 44%
    08:00 -8°C° 0 mm 4 m/S 761 mmHg 42%
    09:00 -8°C° 0 mm 4 m/S 761 mmHg 40%
    10:00 -7°C° 0 mm 4 m/S 761 mmHg 38%
    11:00 -5°C° 0 mm 4 m/S 761 mmHg 35%
    12:00 -5°C° 0 mm 4 m/S 760 mmHg 32%
    13:00 -4°C° 0 mm 4 m/S 760 mmHg 29%
    14:00 -4°C° 0 mm 4 m/S 760 mmHg 29%
    15:00 -4°C° 0 mm 4 m/S 759 mmHg 28%
    16:00 -4°C° 0 mm 4 m/S 759 mmHg 28%
    17:00 -4°C° 0 mm 4 m/S 759 mmHg 31%
    18:00 -5°C° 0 mm 4 m/S 759 mmHg 34%
    19:00 -6°C° 0 mm 3 m/S 759 mmHg 36%
    20:00 -6°C° 0 mm 3 m/S 759 mmHg 38%
    21:00 -7°C° 0 mm 4 m/S 759 mmHg 39%
    22:00 -8°C° 0 mm 4 m/S 759 mmHg 40%
    23:00 -7°C° 0 mm 3 m/S 758 mmHg 41%
    Mehr zeigen